Time,TemperatureF,DewpointF,PressureIn,WindDirection,WindDirectionDegrees,WindSpeedMPH,WindSpeedGustMPH,Humidity,HourlyPrecipIn,Conditions,Clouds,dailyrainin,SoftwareType,DateUTC
2013-01-22 00:05:00,65.0,64.0,30.02,NW,306,4.0,6.0,97,-99.99,,,-99.99,,2013-01-22 05:05:00,
2013-01-22 00:12:00,65.0,64.0,30.02,NNW,334,4.0,7.0,97,-99.99,,,-99.99,,2013-01-22 05:12:00,
2013-01-22 00:23:00,65.0,64.0,30.02,NNW,334,4.0,7.0,97,-99.99,,,-99.99,,2013-01-22 05:23:00,
2013-01-22 00:33:00,65.0,64.0,30.02,NNW,334,4.0,7.0,97,-99.99,,,-99.99,,2013-01-22 05:33:00,
2013-01-22 00:43:00,65.0,64.0,30.01,NW,326,6.0,10.0,97,-99.99,,,-99.99,,2013-01-22 05:43:00,
2013-01-22 00:53:00,65.0,64.0,30.02,NW,317,5.0,9.0,98,-99.99,,,-99.99,,2013-01-22 05:53:00,
2013-01-22 01:02:00,65.0,64.0,30.02,NW,317,5.0,9.0,98,-99.99,,,-99.99,,2013-01-22 06:02:00,
2013-01-22 01:12:00,64.0,64.0,30.01,NW,311,4.0,7.0,98,-99.99,,,-99.99,,2013-01-22 06:12:00,
2013-01-22 01:22:00,64.0,64.0,30.01,NW,311,4.0,7.0,98,-99.99,,,-99.99,,2013-01-22 06:22:00,
2013-01-22 01:33:00,64.0,64.0,30.01,WNW,300,4.0,7.0,98,-99.99,,,-99.99,,2013-01-22 06:33:00,
2013-01-22 01:43:00,64.0,63.0,30.01,NW,306,5.0,7.0,98,-99.99,,,-99.99,,2013-01-22 06:43:00,
2013-01-22 01:53:00,64.0,63.0,30.01,NW,319,4.0,7.0,98,-99.99,,,-99.99,,2013-01-22 06:53:00,
2013-01-22 02:02:00,64.0,63.0,30.01,NW,319,4.0,7.0,98,-99.99,,,-99.99,,2013-01-22 07:02:00,
2013-01-22 02:12:00,64.0,63.0,30.00,NNW,329,5.0,7.0,98,-99.99,,,-99.99,,2013-01-22 07:12:00,
2013-01-22 02:22:00,64.0,63.0,30.00,NNW,329,5.0,7.0,98,-99.99,,,-99.99,,2013-01-22 07:22:00,
2013-01-22 02:33:00,64.0,63.0,30.00,NNW,329,6.0,11.0,98,-99.99,,,-99.99,,2013-01-22 07:33:00,
2013-01-22 02:42:00,64.0,63.0,30.00,NNW,331,6.0,11.0,98,-99.99,,,-99.99,,2013-01-22 07:42:00,
2013-01-22 02:53:00,64.0,63.0,30.00,NNW,330,6.0,10.0,98,-99.99,,,-99.99,,2013-01-22 07:53:00,
2013-01-22 03:02:00,64.0,63.0,30.00,NNW,330,6.0,10.0,98,-99.99,,,-99.99,,2013-01-22 08:02:00,
2013-01-22 03:12:00,64.0,63.0,30.00,NNW,332,6.0,10.0,98,-99.99,,,-99.99,,2013-01-22 08:12:00,
2013-01-22 03:22:00,64.0,63.0,30.00,NNW,332,6.0,10.0,98,-99.99,,,-99.99,,2013-01-22 08:22:00,
2013-01-22 03:32:00,63.0,63.0,30.00,NNW,330,7.0,11.0,98,-99.99,,,-99.99,,2013-01-22 08:32:00,
2013-01-22 03:43:00,63.0,63.0,30.00,NNW,331,7.0,12.0,97,-99.99,,,-99.99,,2013-01-22 08:43:00,
2013-01-22 03:53:00,63.0,63.0,29.99,NNW,330,6.0,9.0,97,-99.99,,,-99.99,,2013-01-22 08:53:00,
2013-01-22 04:02:00,63.0,63.0,29.99,NNW,330,6.0,9.0,97,-99.99,,,-99.99,,2013-01-22 09:02:00,
2013-01-22 04:12:00,63.0,62.0,29.99,NNW,333,6.0,9.0,97,-99.99,,,-99.99,,2013-01-22 09:12:00,
2013-01-22 04:22:00,63.0,62.0,29.99,NNW,333,6.0,9.0,97,-99.99,,,-99.99,,2013-01-22 09:22:00,
2013-01-22 04:32:00,63.0,62.0,29.99,NNW,332,6.0,9.0,97,-99.99,,,-99.99,,2013-01-22 09:32:00,
2013-01-22 04:43:00,63.0,62.0,30.00,NNW,327,5.0,8.0,96,-99.99,,,-99.99,,2013-01-22 09:43:00,
2013-01-22 04:53:00,63.0,61.0,30.00,NNW,337,5.0,8.0,95,-99.99,,,-99.99,,2013-01-22 09:53:00,
2013-01-22 05:03:00,63.0,61.0,30.00,NNW,337,5.0,8.0,95,-99.99,,,-99.99,,2013-01-22 10:03:00,
2013-01-22 05:12:00,62.0,61.0,30.00,NW,325,6.0,9.0,95,-99.99,,,-99.99,,2013-01-22 10:12:00,
2013-01-22 05:22:00,62.0,61.0,30.00,NW,325,6.0,9.0,95,-99.99,,,-99.99,,2013-01-22 10:22:00,
2013-01-22 05:32:00,63.0,61.0,30.00,NNW,328,7.0,10.0,95,-99.99,,,-99.99,,2013-01-22 10:32:00,
2013-01-22 05:42:00,62.0,61.0,30.01,NNW,333,7.0,11.0,94,-99.99,,,-99.99,,2013-01-22 10:42:00,
2013-01-22 05:53:00,62.0,61.0,30.01,NNW,337,7.0,9.0,93,-99.99,,,-99.99,,2013-01-22 10:53:00,
2013-01-22 06:02:00,62.0,61.0,30.01,NNW,337,7.0,9.0,93,-99.99,,,-99.99,,2013-01-22 11:02:00,
2013-01-22 06:12:00,62.0,60.0,30.02,NNW,334,7.0,10.0,93,-99.99,,,-99.99,,2013-01-22 11:12:00,
2013-01-22 06:23:00,62.0,60.0,30.02,NNW,334,7.0,10.0,93,-99.99,,,-99.99,,2013-01-22 11:23:00,
2013-01-22 06:33:00,62.0,60.0,30.02,NNW,332,7.0,12.0,94,-99.99,,,-99.99,,2013-01-22 11:33:00,
2013-01-22 06:43:00,62.0,60.0,30.03,NNW,328,7.0,11.0,94,-99.99,,,-99.99,,2013-01-22 11:43:00,
2013-01-22 06:54:00,62.0,60.0,30.04,NNW,334,8.0,12.0,93,-99.99,,,-99.99,,2013-01-22 11:54:00,
2013-01-22 07:04:00,62.0,60.0,30.04,NNW,334,8.0,12.0,93,-99.99,,,-99.99,,2013-01-22 12:04:00,
2013-01-22 07:13:00,62.0,60.0,30.04,NNW,335,8.0,12.0,93,-99.99,,,-99.99,,2013-01-22 12:13:00,
2013-01-22 07:23:00,62.0,60.0,30.04,NNW,335,8.0,12.0,93,-99.99,,,-99.99,,2013-01-22 12:23:00,
2013-01-22 07:33:00,62.0,60.0,30.04,NNW,335,8.0,11.0,93,-99.99,,,-99.99,,2013-01-22 12:33:00,
2013-01-22 07:43:00,62.0,60.0,30.05,NW,317,8.0,35.0,93,-99.99,,,-99.99,,2013-01-22 12:43:00,
2013-01-22 07:53:00,61.0,59.0,30.06,NNW,336,8.0,15.0,93,-99.99,,,-99.99,,2013-01-22 12:53:00,
2013-01-22 08:04:00,61.0,59.0,30.06,NNW,336,8.0,15.0,93,-99.99,,,-99.99,,2013-01-22 13:04:00,
2013-01-22 08:14:00,61.0,59.0,30.07,NNW,333,8.0,11.0,93,-99.99,,,-99.99,,2013-01-22 13:14:00,
2013-01-22 08:23:00,61.0,59.0,30.07,NNW,333,8.0,11.0,93,-99.99,,,-99.99,,2013-01-22 13:23:00,
2013-01-22 08:33:00,61.0,59.0,30.07,NNW,334,8.0,13.0,92,-99.99,,,-99.99,,2013-01-22 13:33:00,
2013-01-22 08:43:00,62.0,59.0,30.08,NNW,334,8.0,12.0,91,-99.99,,,-99.99,,2013-01-22 13:43:00,
2013-01-22 08:54:00,62.0,59.0,30.08,NNW,334,8.0,12.0,91,-99.99,,,-99.99,,2013-01-22 13:54:00,
2013-01-22 09:03:00,62.0,59.0,30.08,NNW,334,8.0,12.0,91,-99.99,,,-99.99,,2013-01-22 14:03:00,
2013-01-22 09:13:00,62.0,59.0,30.08,NNW,334,8.0,12.0,91,-99.99,,,-99.99,,2013-01-22 14:13:00,
2013-01-22 09:44:00,62.0,59.0,30.08,NNW,334,8.0,12.0,91,-99.99,,,-99.99,,2013-01-22 14:44:00,
2013-01-22 09:54:00,66.0,59.0,30.10,WSW,252,11.0,12.0,77,-99.99,,,-99.99,,2013-01-22 14:54:00,
2013-01-22 10:04:00,66.0,59.0,30.10,WSW,252,11.0,12.0,77,-99.99,,,-99.99,,2013-01-22 15:04:00,
2013-01-22 10:13:00,67.0,59.0,30.10,ESE,103,11.0,17.0,75,-99.99,,,-99.99,,2013-01-22 15:13:00,
2013-01-22 10:23:00,67.0,59.0,30.10,ESE,103,11.0,17.0,75,-99.99,,,-99.99,,2013-01-22 15:23:00,
2013-01-22 10:34:00,67.0,59.0,30.11,ENE,62,11.0,15.0,74,-99.99,,,-99.99,,2013-01-22 15:34:00,
2013-01-22 10:43:00,68.0,59.0,30.11,SE,140,12.0,21.0,71,-99.99,,,-99.99,,2013-01-22 15:43:00,
2013-01-22 10:54:00,70.0,59.0,30.11,SE,130,12.0,16.0,68,-99.99,,,-99.99,,2013-01-22 15:54:00,
2013-01-22 11:04:00,70.0,59.0,30.11,SE,130,12.0,16.0,68,-99.99,,,-99.99,,2013-01-22 16:04:00,
2013-01-22 11:13:00,71.0,59.0,30.11,ENE,78,13.0,18.0,67,-99.99,,,-99.99,,2013-01-22 16:13:00,
2013-01-22 11:24:00,71.0,59.0,30.11,ENE,78,13.0,18.0,67,-99.99,,,-99.99,,2013-01-22 16:24:00,
2013-01-22 11:33:00,71.0,59.0,30.11,East,93,14.0,20.0,65,-99.99,,,-99.99,,2013-01-22 16:33:00,
2013-01-22 11:43:00,71.0,59.0,30.11,ENE,63,12.0,18.0,65,-99.99,,,-99.99,,2013-01-22 16:43:00,
2013-01-22 11:54:00,72.0,60.0,30.11,NE,56,14.0,20.0,64,-99.99,,,-99.99,,2013-01-22 16:54:00,
2013-01-22 12:04:00,72.0,60.0,30.11,NE,56,14.0,20.0,64,-99.99,,,-99.99,,2013-01-22 17:04:00,
2013-01-22 12:13:00,73.0,60.0,30.11,NE,42,13.0,20.0,62,-99.99,,,-99.99,,2013-01-22 17:13:00,
2013-01-22 12:23:00,73.0,60.0,30.11,NE,42,13.0,20.0,62,-99.99,,,-99.99,,2013-01-22 17:23:00,
2013-01-22 12:34:00,73.0,60.0,30.11,NNE,28,12.0,18.0,63,-99.99,,,-99.99,,2013-01-22 17:34:00,
2013-01-22 12:44:00,75.0,60.0,30.10,ESE,115,11.0,18.0,60,-99.99,,,-99.99,,2013-01-22 17:44:00,
2013-01-22 12:54:00,74.0,59.0,30.09,NNE,30,13.0,18.0,59,-99.99,,,-99.99,,2013-01-22 17:54:00,
2013-01-22 13:04:00,74.0,59.0,30.09,NNE,30,13.0,18.0,59,-99.99,,,-99.99,,2013-01-22 18:04:00,
2013-01-22 13:13:00,74.0,60.0,30.09,East,86,12.0,18.0,61,-99.99,,,-99.99,,2013-01-22 18:13:00,
2013-01-22 13:24:00,74.0,60.0,30.09,East,86,12.0,18.0,61,-99.99,,,-99.99,,2013-01-22 18:24:00,
2013-01-22 13:34:00,73.0,59.0,30.09,SE,132,13.0,21.0,62,-99.99,,,-99.99,,2013-01-22 18:34:00,
2013-01-22 13:43:00,74.0,59.0,30.08,NE,37,13.0,18.0,59,-99.99,,,-99.99,,2013-01-22 18:43:00,
2013-01-22 13:54:00,73.0,59.0,30.08,ENE,71,14.0,22.0,60,-99.99,,,-99.99,,2013-01-22 18:54:00,
2013-01-22 14:04:00,73.0,59.0,30.08,ENE,71,14.0,22.0,60,-99.99,,,-99.99,,2013-01-22 19:04:00,
2013-01-22 14:13:00,73.0,59.0,30.08,ENE,59,15.0,27.0,60,-99.99,,,-99.99,,2013-01-22 19:13:00,
2013-01-22 14:24:00,73.0,59.0,30.08,ENE,59,15.0,27.0,60,-99.99,,,-99.99,,2013-01-22 19:24:00,
2013-01-22 14:34:00,73.0,59.0,30.08,ENE,59,15.0,27.0,60,-99.99,,,-99.99,,2013-01-22 19:34:00,
2013-01-22 14:43:00,72.0,60.0,30.07,ENE,65,17.0,22.0,63,-99.99,,,-99.99,,2013-01-22 19:43:00,
2013-01-22 14:54:00,73.0,59.0,30.07,NE,34,15.0,23.0,62,-99.99,,,-99.99,,2013-01-22 19:54:00,
2013-01-22 15:03:00,73.0,59.0,30.07,NE,34,15.0,23.0,62,-99.99,,,-99.99,,2013-01-22 20:03:00,
2013-01-22 15:13:00,73.0,60.0,30.07,NE,47,13.0,22.0,63,-99.99,,,-99.99,,2013-01-22 20:13:00,
2013-01-22 15:23:00,73.0,60.0,30.07,NE,47,13.0,22.0,63,-99.99,,,-99.99,,2013-01-22 20:23:00,
2013-01-22 15:33:00,73.0,60.0,30.08,NNE,32,14.0,20.0,62,-99.99,,,-99.99,,2013-01-22 20:33:00,
2013-01-22 15:43:00,73.0,59.0,30.08,NE,40,13.0,20.0,63,-99.99,,,-99.99,,2013-01-22 20:43:00,
2013-01-22 15:54:00,72.0,59.0,30.09,NE,34,15.0,24.0,63,-99.99,,,-99.99,,2013-01-22 20:54:00,
2013-01-22 16:04:00,72.0,59.0,30.09,NE,34,15.0,24.0,63,-99.99,,,-99.99,,2013-01-22 21:04:00,
2013-01-22 16:13:00,72.0,59.0,30.09,NE,34,16.0,24.0,63,-99.99,,,-99.99,,2013-01-22 21:13:00,
2013-01-22 16:23:00,72.0,59.0,30.09,NE,34,16.0,24.0,63,-99.99,,,-99.99,,2013-01-22 21:23:00,
2013-01-22 16:34:00,71.0,58.0,30.10,NE,50,15.0,22.0,64,-99.99,,,-99.99,,2013-01-22 21:34:00,
2013-01-22 16:43:00,70.0,58.0,30.10,NE,44,15.0,22.0,66,-99.99,,,-99.99,,2013-01-22 21:43:00,
2013-01-22 16:53:00,70.0,58.0,30.11,NE,51,14.0,22.0,65,-99.99,,,-99.99,,2013-01-22 21:53:00,
2013-01-22 17:03:00,70.0,58.0,30.11,NE,51,14.0,22.0,65,-99.99,,,-99.99,,2013-01-22 22:03:00,
2013-01-22 17:13:00,70.0,58.0,30.11,NE,51,14.0,22.0,65,-99.99,,,-99.99,,2013-01-22 22:13:00,
2013-01-22 17:23:00,70.0,58.0,30.11,NNE,24,16.0,24.0,64,-99.99,,,-99.99,,2013-01-22 22:23:00,
2013-01-22 17:33:00,70.0,58.0,30.11,NNE,24,16.0,24.0,64,-99.99,,,-99.99,,2013-01-22 22:33:00,
2013-01-22 17:43:00,68.0,57.0,30.12,NE,38,15.0,25.0,66,-99.99,,,-99.99,,2013-01-22 22:43:00,
2013-01-22 17:53:00,68.0,56.0,30.12,ENE,59,13.0,21.0,66,-99.99,,,-99.99,,2013-01-22 22:53:00,
2013-01-22 18:03:00,68.0,56.0,30.12,ENE,59,13.0,21.0,66,-99.99,,,-99.99,,2013-01-22 23:03:00,
2013-01-22 18:12:00,68.0,56.0,30.12,ENE,59,13.0,21.0,66,-99.99,,,-99.99,,2013-01-22 23:12:00,
2013-01-22 18:24:00,67.0,56.0,30.13,NE,48,11.0,15.0,67,-99.99,,,-99.99,,2013-01-22 23:24:00,
2013-01-22 18:33:00,67.0,56.0,30.13,NE,48,11.0,15.0,67,-99.99,,,-99.99,,2013-01-22 23:33:00,
2013-01-22 18:43:00,67.0,55.0,30.14,East,82,10.0,15.0,66,-99.99,,,-99.99,,2013-01-22 23:43:00,
2013-01-22 18:53:00,66.0,55.0,30.14,NE,36,10.0,15.0,66,-99.99,,,-99.99,,2013-01-22 23:53:00,
2013-01-22 19:03:00,66.0,55.0,30.14,NE,36,10.0,15.0,66,-99.99,,,-99.99,,2013-01-23 00:03:00,
2013-01-22 19:13:00,66.0,55.0,30.14,NNE,22,10.0,14.0,66,-99.99,,,-99.99,,2013-01-23 00:13:00,
2013-01-22 19:23:00,66.0,55.0,30.14,NNE,22,10.0,14.0,66,-99.99,,,-99.99,,2013-01-23 00:23:00,
2013-01-22 19:33:00,65.0,55.0,30.15,NE,42,9.0,13.0,67,-99.99,,,-99.99,,2013-01-23 00:33:00,
2013-01-22 19:43:00,65.0,54.0,30.15,NNE,22,10.0,14.0,67,-99.99,,,-99.99,,2013-01-23 00:43:00,
2013-01-22 19:53:00,65.0,55.0,30.16,ENE,60,7.0,12.0,70,-99.99,,,-99.99,,2013-01-23 00:53:00,
2013-01-22 20:03:00,65.0,55.0,30.16,ENE,60,7.0,12.0,70,-99.99,,,-99.99,,2013-01-23 01:03:00,
2013-01-22 20:13:00,65.0,55.0,30.16,ENE,60,7.0,12.0,70,-99.99,,,-99.99,,2013-01-23 01:13:00,
2013-01-22 20:23:00,65.0,55.0,30.16,NNE,17,8.0,10.0,68,-99.99,,,-99.99,,2013-01-23 01:23:00,
2013-01-22 20:33:00,65.0,55.0,30.16,NNE,23,7.0,10.0,69,-99.99,,,-99.99,,2013-01-23 01:33:00,
2013-01-22 20:43:00,65.0,55.0,30.16,NNE,23,7.0,10.0,69,-99.99,,,-99.99,,2013-01-23 01:43:00,
2013-01-22 20:53:00,65.0,56.0,30.16,SE,135,6.0,8.0,73,-99.99,,,-99.99,,2013-01-23 01:53:00,
2013-01-22 21:03:00,65.0,56.0,30.16,SE,135,6.0,8.0,73,-99.99,,,-99.99,,2013-01-23 02:03:00,
2013-01-22 21:13:00,64.0,56.0,30.17,East,91,5.0,8.0,73,-99.99,,,-99.99,,2013-01-23 02:13:00,
2013-01-22 21:23:00,64.0,56.0,30.17,East,91,5.0,8.0,73,-99.99,,,-99.99,,2013-01-23 02:23:00,
2013-01-22 21:33:00,64.0,56.0,30.18,NE,50,6.0,8.0,74,-99.99,,,-99.99,,2013-01-23 02:33:00,
2013-01-22 21:43:00,64.0,56.0,30.18,East,82,6.0,8.0,74,-99.99,,,-99.99,,2013-01-23 02:43:00,
2013-01-22 21:54:00,64.0,56.0,30.18,NE,39,6.0,9.0,74,-99.99,,,-99.99,,2013-01-23 02:54:00,
2013-01-22 22:03:00,64.0,56.0,30.18,NE,39,6.0,9.0,74,-99.99,,,-99.99,,2013-01-23 03:03:00,
2013-01-22 22:13:00,64.0,56.0,30.19,SSW,200,5.0,6.0,75,-99.99,,,-99.99,,2013-01-23 03:13:00,
2013-01-22 22:23:00,64.0,56.0,30.19,SSW,200,5.0,6.0,75,-99.99,,,-99.99,,2013-01-23 03:23:00,
2013-01-22 22:33:00,64.0,56.0,30.20,ENE,57,4.0,8.0,75,-99.99,,,-99.99,,2013-01-23 03:33:00,
2013-01-22 22:43:00,65.0,55.0,30.20,ENE,65,5.0,10.0,70,-99.99,,,-99.99,,2013-01-23 03:43:00,
2013-01-22 22:53:00,65.0,54.0,30.20,ENE,68,5.0,12.0,65,-99.99,,,-99.99,,2013-01-23 03:53:00,
2013-01-22 23:03:00,65.0,54.0,30.20,ENE,68,5.0,12.0,65,-99.99,,,-99.99,,2013-01-23 04:03:00,
2013-01-22 23:13:00,65.0,54.0,30.20,NE,48,6.0,11.0,66,-99.99,,,-99.99,,2013-01-23 04:13:00,
2013-01-22 23:23:00,65.0,54.0,30.20,NE,48,6.0,11.0,66,-99.99,,,-99.99,,2013-01-23 04:23:00,
2013-01-22 23:33:00,65.0,54.0,30.20,NE,43,6.0,10.0,66,-99.99,,,-99.99,,2013-01-23 04:33:00,
2013-01-22 23:43:00,65.0,54.0,30.20,NE,42,6.0,10.0,66,-99.99,,,-99.99,,2013-01-23 04:43:00,
2013-01-22 23:53:00,65.0,53.0,30.20,NE,44,7.0,11.0,65,-99.99,,,-99.99,,2013-01-23 04:53:00,